This is the latest recevied weather packets stored in our database for station/object VK2JFP-2. If no packets are shown the sender has not sent any weather packets the latest 10 day(s).
| Time | Temp. | Humidity | Pressure | Rain* | Wind** | Luminosity | Snow |
|---|---|---|---|---|---|---|---|
| 1788145634 | 78° F | 33% | 774.4 mmHg | - | - | - | - |
| 1788143833 | 77° F | 36% | 774.7 mmHg | - | - | - | - |
| 1788142032 | 75° F | 33% | 775 mmHg | - | - | - | - |
| 1788140231 | 75° F | 35% | 775.4 mmHg | - | - | - | - |
| 1788138431 | 75° F | 42% | 775.8 mmHg | - | - | - | - |
| 1788136630 | 74° F | 57% | 776.1 mmHg | - | - | - | - |
| 1788134829 | 71° F | 50% | 776.3 mmHg | - | - | - | - |
| 1788133029 | 66° F | 60% | 776.5 mmHg | - | - | - | - |
| 1788131228 | 63° F | 62% | 776.6 mmHg | - | - | - | - |
| 1788129427 | 60° F | 72% | 776.8 mmHg | - | - | - | - |
| 1788127626 | 52° F | 100% | 776.8 mmHg | - | - | - | - |
| 1788125825 | 49° F | 97% | 776.6 mmHg | - | - | - | - |
| 1788124024 | 51° F | 100% | 776.4 mmHg | - | - | - | - |
| 1788122224 | 36° F | 100% | 776.2 mmHg | - | - | - | - |
| 1788120423 | 37° F | 100% | 775.9 mmHg | - | - | - | - |
| 1788118623 | 36° F | 100% | 775.7 mmHg | - | - | - | - |
| 1788116822 | 38° F | 100% | 775.5 mmHg | - | - | - | - |
| 1788115022 | 37° F | 100% | 775.4 mmHg | - | - | - | - |
| 1788113221 | 38° F | 100% | 775.3 mmHg | - | - | - | - |
| 1788111420 | 37° F | 100% | 775.5 mmHg | - | - | - | - |
| 1788109619 | 41° F | 100% | 775.4 mmHg | - | - | - | - |
| 1788107818 | 38° F | 100% | 775.5 mmHg | - | - | - | - |
| 1788106017 | 39° F | 100% | 775.7 mmHg | - | - | - | - |
| 1788104217 | 39° F | 100% | 775.7 mmHg | - | - | - | - |
| 1788102416 | 40° F | 100% | 775.6 mmHg | - | - | - | - |
* Rain since midnight (hover to see other rain measurements)
** Current wind speed in m/s (hover to see current wind gust speed)